Location: Absher
(46.5583°N, 107.9840°W)
Time: 19:54:47
(UTC+00:00)

TIGRISAT - Pass Details

Date: 03 April 2023
Orbit: 599 x 682 km, 97.7° (Epoch: 31 May)

Event Time Altitude Azimuth Distance (km) Brightness Sun altitude
Rises 12:01:01 0° 168° (SSE) 2,928 ? -8.7°
Reaches altitude 10° 12:03:11 10° 169° (S) 2,037 ? -8.3°
Maximum altitude 12:07:39 81° 258° (WSW) 671 ? -7.6°
Drops below altitude 10° 12:12:15 10° 345° (NNW) 2,103 ? -6.8°
Sets 12:14:31 0° 347° (NNW) 3,032 ? -6.4°
